This is the latest recevied weather packets stored in our database for station/object KO4APQ. If no packets are shown the sender has not sent any weather packets the latest 1 day(s).
| Time | Temp. | Humidity | Pressure | Rain* | Wind** | Luminosity | Snow |
|---|---|---|---|---|---|---|---|
| 1778057124 | 17.78° C | 62% | 1014 hPa | 0 mm | 0 m/s | 0 W/m² | - |
| 1778056820 | 17.78° C | 61% | 1014.1 hPa | 0 mm | 0 m/s | 0 W/m² | - |
| 1778056517 | 17.78° C | 61% | 1014.1 hPa | 0 mm | 1.79 m/s, 204° | 0 W/m² | - |
| 1778056215 | 17.78° C | 62% | 1014 hPa | 0 mm | 0.89 m/s, 173° | 0 W/m² | - |
| 1778055911 | 18.33° C | 62% | 1014.1 hPa | 0 mm | 0.45 m/s, 143° | 0 W/m² | - |
| 1778055607 | 18.33° C | 62% | 1014.1 hPa | 0 mm | 0.45 m/s, 151° | 0 W/m² | - |
| 1778055305 | 18.33° C | 61% | 1014.1 hPa | 0 mm | 0.45 m/s, 186° | 0 W/m² | - |
| 1778055002 | 18.33° C | 63% | 1014.2 hPa | 0 mm | 0 m/s | 0 W/m² | - |
| 1778054700 | 18.33° C | 62% | 1014.3 hPa | 0 mm | 0 m/s | 0 W/m² | - |
| 1778054397 | 18.33° C | 62% | 1014.3 hPa | 0 mm | 0 m/s | 0 W/m² | - |
| 1778054095 | 18.33° C | 61% | 1014.2 hPa | 0 mm | 0 m/s | 0 W/m² | - |
| 1778053791 | 18.33° C | 59% | 1014.2 hPa | 0 mm | 0 m/s | 0 W/m² | - |
| 1778053488 | 18.33° C | 61% | 1013.8 hPa | 0 mm | 0 m/s | 0 W/m² | - |
| 1778053185 | 18.33° C | 60% | 1013.9 hPa | 0 mm | 0 m/s | 0 W/m² | - |
| 1778052883 | 18.33° C | 61% | 1014 hPa | 0 mm | 0 m/s | 0 W/m² | - |
| 1778052580 | 18.33° C | 61% | 1014 hPa | 0 mm | 0.45 m/s, 187° | 0 W/m² | - |
| 1778052277 | 17.78° C | 62% | 1013.9 hPa | 0 mm | 0 m/s | 0 W/m² | - |
| 1778051975 | 17.78° C | 66% | 1014.2 hPa | 0 mm | 0 m/s | 0 W/m² | - |
| 1778051673 | 17.78° C | 63% | 1014.2 hPa | 0 mm | 0 m/s | 0 W/m² | - |
| 1778051370 | 17.78° C | 65% | 1014.4 hPa | 0 mm | 0 m/s | 0 W/m² | - |
| 1778051066 | 17.22° C | 65% | 1014.4 hPa | 0 mm | 0 m/s | 0 W/m² | - |
| 1778050764 | 17.22° C | 68% | 1014.2 hPa | 0 mm | 0 m/s | 0 W/m² | - |
| 1778050461 | 17.22° C | 73% | 1014.3 hPa | 0 mm | 0 m/s | 0 W/m² | - |
| 1778050158 | 16.67° C | 73% | 1014.3 hPa | 0 mm | 0 m/s | 0 W/m² | - |
| 1778049854 | 16.67° C | 77% | 1014.4 hPa | 0 mm | 0 m/s | 0 W/m² | - |
* Rain latest hour (hover to see other rain measurements)
** Current wind speed in m/s (hover to see current wind gust speed)